Weather History for Zanesville, OH

Change the Weather History Date:

Friday, September 13, 2013

  Actual Average Record
Temperature  
Mean Temperature 60 °F 66 °F  
Max Temperature 68 °F 77 °F 92 °F (1952)
Min Temperature 52 °F 54 °F 40 °F (1953)
Degree Days  
Heating Degree Days 5 2  
Month to date heating degree days 12 18  
Since 1 July heating degree days 21 29  
Cooling Degree Days 0 3  
Month to date cooling degree days 78 52  
Year to date cooling degree days 811 729  
Growing Degree Days 8 (Base 50)    
Moisture  
Dew Point 52 °F    
Average Humidity 75    
Maximum Humidity 90    
Minimum Humidity 60    
Precipitation  
Precipitation 0.00 in 0.10 in 1.21 in (1951)
Month to date precipitation 0.18 1.29  
Year to date precipitation 28.19 27.81  
Sea Level Pressure  
Sea Level Pressure 29.96 in    
Wind  
Wind Speed 8 mph (NNW)    
Max Wind Speed 17 mph    
Max Gust Speed 23 mph    
Visibility 10 miles    
Events Rain , Thunderstorm    
T = Trace of Precipitation, MM = Missing Value Source: NWS Daily Summary

Daily Weather History Graph

Daily Weather History Graph

Search for Another Location

Airport:

Trip Planner

Search our weather history database for the weather conditions in past years. The results will help you decide how hot, cold, wet, or windy it might be!

Date:

Astronomy

Sep. 13, 2013 Rise Set
Actual Time 7:06 AM EDT 7:39 PM EDT
Civil Twilight 6:39 AM EDT 8:06 PM EDT
Nautical Twilight 6:07 AM EDT 8:38 PM EDT
Astronomical Twilight 5:34 AM EDT 9:11 PM EDT
Moon 3:27 PM EDT (9/13) 12:35 AM EDT (9/13)
Length of Visible Light 13h 26m
Length of Day
12h 32m
First Quarter, 61% of the Moon is Illuminated
Sep 13
First Quarter
Sep 19
Full
Sep 26
Last Quarter
Oct 4
New
Oct 11
First Quarter

Hourly Weather History & Observations

Time (EDT) Temp. Dew Point Humidity Pressure Visibility Wind Dir Wind Speed Gust Speed Precip Events Conditions
12:14 AM 62.6 °F 59.0 °F 88% 29.89 in 10.0 mi North 15.0 mph 26.5 mph 0.01 in Rain , Thunderstorm Light Rain
12:29 AM 62.6 °F 57.2 °F 82% 29.89 in 10.0 mi North 10.4 mph 20.7 mph 0.01 in   Overcast
12:53 AM 62.1 °F 57.0 °F 84% 29.88 in 10.0 mi North 8.1 mph 16.1 mph 0.01 in   Overcast
1:53 AM 60.1 °F 55.9 °F 86% 29.88 in 10.0 mi North 4.6 mph - N/A   Scattered Clouds
2:20 AM 60.8 °F 57.2 °F 88% 29.89 in 10.0 mi NNW 5.8 mph - N/A   Mostly Cloudy
2:49 AM 59.0 °F 55.4 °F 88% 29.89 in 10.0 mi North 4.6 mph - N/A   Scattered Clouds
2:53 AM 59.0 °F 55.9 °F 90% 29.88 in 10.0 mi Calm Calm - N/A   Scattered Clouds
3:42 AM 60.8 °F 57.2 °F 88% 29.90 in 10.0 mi NW 5.8 mph - N/A   Mostly Cloudy
3:53 AM 60.1 °F 57.0 °F 90% 29.89 in 10.0 mi NW 5.8 mph - N/A   Overcast
4:26 AM 59.0 °F 55.4 °F 88% 29.91 in 10.0 mi NW 6.9 mph - N/A   Mostly Cloudy
4:43 AM 60.8 °F 57.2 °F 88% 29.91 in 10.0 mi NW 10.4 mph - N/A   Overcast
4:53 AM 60.1 °F 55.9 °F 86% 29.90 in 10.0 mi NNW 9.2 mph - N/A   Overcast
5:05 AM 59.0 °F 53.6 °F 82% 29.91 in 10.0 mi NNW 8.1 mph - N/A   Overcast
5:21 AM 59.0 °F 53.6 °F 82% 29.92 in 10.0 mi NW 9.2 mph - N/A   Overcast
5:53 AM 59.0 °F 53.1 °F 81% 29.91 in 10.0 mi NNW 12.7 mph - N/A   Overcast
6:53 AM 55.9 °F 50.0 °F 80% 29.93 in 10.0 mi NW 6.9 mph - N/A   Scattered Clouds
7:53 AM 55.0 °F 48.9 °F 80% 29.96 in 10.0 mi NW 8.1 mph - N/A   Partly Cloudy
8:53 AM 57.0 °F 50.0 °F 77% 29.96 in 10.0 mi NW 10.4 mph - N/A   Clear
9:53 AM 60.1 °F 50.0 °F 69% 29.96 in 10.0 mi NNW 9.2 mph - N/A   Scattered Clouds
10:32 AM 60.8 °F 50.0 °F 68% 29.98 in 10.0 mi North 6.9 mph - N/A   Mostly Cloudy
10:53 AM 62.1 °F 50.0 °F 65% 29.97 in 10.0 mi NNW 9.2 mph - N/A   Mostly Cloudy
11:05 AM 62.6 °F 50.0 °F 63% 29.98 in 10.0 mi North 11.5 mph - N/A   Scattered Clouds
11:53 AM 62.1 °F 48.9 °F 62% 29.97 in 10.0 mi NNW 9.2 mph - N/A   Mostly Cloudy
12:01 PM 62.6 °F 48.2 °F 59% 29.99 in 10.0 mi NW 12.7 mph - N/A   Mostly Cloudy
12:12 PM 62.6 °F 50.0 °F 63% 29.98 in 10.0 mi NW 6.9 mph - N/A   Mostly Cloudy
12:53 PM 64.9 °F 51.1 °F 61% 29.97 in 10.0 mi NW 9.2 mph - N/A   Overcast
1:53 PM 64.9 °F 50.0 °F 58% 29.97 in 10.0 mi NW 9.2 mph - N/A   Mostly Cloudy
2:53 PM 64.0 °F 51.1 °F 63% 29.96 in 10.0 mi NW 16.1 mph 20.7 mph N/A   Mostly Cloudy
3:53 PM 63.0 °F 48.9 °F 60% 29.98 in 10.0 mi NNW 10.4 mph 21.9 mph N/A   Overcast
4:53 PM 60.1 °F 46.9 °F 62% 30.00 in 10.0 mi North 8.1 mph 18.4 mph N/A   Overcast
5:53 PM 60.1 °F 48.0 °F 64% 30.01 in 10.0 mi North 9.2 mph - N/A   Overcast
6:53 PM 59.0 °F 46.9 °F 64% 30.03 in 10.0 mi North 5.8 mph 20.7 mph N/A   Overcast
7:53 PM 55.9 °F 46.9 °F 72% 30.04 in 10.0 mi NNW 5.8 mph - N/A   Mostly Cloudy
8:53 PM 53.1 °F 46.9 °F 80% 30.06 in 10.0 mi North 3.5 mph - N/A   Partly Cloudy
9:53 PM 55.0 °F 48.0 °F 77% 30.06 in 10.0 mi NNW 3.5 mph - N/A   Overcast
10:53 PM 54.0 °F 46.0 °F 75% 30.07 in 10.0 mi North 3.5 mph - N/A   Mostly Cloudy
11:53 PM 53.1 °F 46.0 °F 77% 30.08 in 10.0 mi North 4.6 mph - N/A   Mostly Cloudy